Previsão horária em Cecele

Hoje, 25 Julho, Domingo

Tempo Temperatura Precipitação Vento Pressão Humidade
00:00 +19°C° 0 mm 2 m/s 748 mmHg 71%
01:00 +19°C° 0 mm 2 m/s 748 mmHg 74%
02:00 +18°C° 0 mm 2 m/s 748 mmHg 75%
03:00 +18°C° 0 mm 2 m/s 748 mmHg 75%
04:00 +18°C° 0 mm 2 m/s 748 mmHg 75%
05:00 +18°C° 0 mm 2 m/s 748 mmHg 75%
06:00 +19°C° 0 mm 3 m/s 748 mmHg 71%
07:00 +21°C° 0 mm 3 m/s 748 mmHg 66%
08:00 +24°C° 0 mm 3 m/s 748 mmHg 61%
09:00 +26°C° 0 mm 4 m/s 748 mmHg 54%
10:00 +27°C° 0 mm 4 m/s 748 mmHg 47%
11:00 +29°C° 0 mm 5 m/s 748 mmHg 40%
12:00 +30°C° 0 mm 5 m/s 748 mmHg 38%
13:00 +30°C° 0 mm 5 m/s 748 mmHg 36%
14:00 +32°C° 0 mm 5 m/s 748 mmHg 33%
15:00 +30°C° 0 mm 4 m/s 748 mmHg 35%
16:00 +30°C° 0 mm 4 m/s 748 mmHg 37%
17:00 +29°C° 0 mm 3 m/s 748 mmHg 38%
18:00 +28°C° 0 mm 4 m/s 748 mmHg 42%
19:00 +26°C° 0 mm 4 m/s 748 mmHg 47%
20:00 +25°C° 0 mm 4 m/s 748 mmHg 51%
21:00 +23°C° 0 mm 4 m/s 748 mmHg 53%
22:00 +23°C° 0 mm 4 m/s 748 mmHg 55%
23:00 +22°C° 0 mm 4 m/s 748 mmHg 57%

Amanhã, 26 Julho, Segunda-feira

Tempo Temperatura Precipitação Vento Pressão Humidade
00:00 +21°C° 0 mm 4 m/s 748 mmHg 59%
01:00 +20°C° 0 mm 3 m/s 748 mmHg 62%
02:00 +19°C° 0 mm 3 m/s 748 mmHg 65%
03:00 +19°C° 0 mm 3 m/s 748 mmHg 66%
04:00 +19°C° 0 mm 4 m/s 748 mmHg 67%
05:00 +19°C° 0 mm 4 m/s 748 mmHg 68%
06:00 +21°C° 0 mm 5 m/s 748 mmHg 64%
07:00 +22°C° 0 mm 5 m/s 748 mmHg 60%
08:00 +23°C° 0 mm 6 m/s 748 mmHg 56%
09:00 +26°C° 0 mm 7 m/s 748 mmHg 51%
10:00 +28°C° 0 mm 7 m/s 748 mmHg 46%
11:00 +29°C° 0 mm 8 m/s 748 mmHg 41%
12:00 +30°C° 0 mm 7 m/s 747 mmHg 40%
13:00 +30°C° 0 mm 7 m/s 747 mmHg 40%
14:00 +32°C° 0 mm 7 m/s 747 mmHg 39%
15:00 +30°C° 0 mm 7 m/s 747 mmHg 43%
16:00 +29°C° 0 mm 7 m/s 747 mmHg 47%
17:00 +28°C° 0 mm 7 m/s 747 mmHg 50%
18:00 +26°C° 0.6 mm 6 m/s 747 mmHg 60%
19:00 +23°C° 0.6 mm 6 m/s 746 mmHg 70%
20:00 +22°C° 0.6 mm 5 m/s 746 mmHg 80%
21:00 +21°C° 1.6 mm 6 m/s 746 mmHg 85%
22:00 +20°C° 1.6 mm 6 m/s 746 mmHg 89%
23:00 +19°C° 1.6 mm 6 m/s 746 mmHg 94%

Depois de amanhã, 27 Julho, Terça-feira

Tempo Temperatura Precipitação Vento Pressão Humidade
00:00 +19°C° 0.4 mm 5 m/s 746 mmHg 95%
01:00 +19°C° 0.4 mm 4 m/s 746 mmHg 95%
02:00 +20°C° 0.4 mm 4 m/s 746 mmHg 95%
03:00 +19°C° 0 mm 3 m/s 746 mmHg 96%
04:00 +19°C° 0 mm 3 m/s 746 mmHg 96%
05:00 +18°C° 0 mm 3 m/s 745 mmHg 97%
06:00 +20°C° 0 mm 2 m/s 746 mmHg 92%
07:00 +21°C° 0 mm 2 m/s 746 mmHg 87%
08:00 +24°C° 0 mm 2 m/s 746 mmHg 82%
09:00 +25°C° 0.1 mm 2 m/s 746 mmHg 74%
10:00 +27°C° 0.1 mm 3 m/s 746 mmHg 65%
11:00 +29°C° 0.1 mm 3 m/s 746 mmHg 57%
12:00 +28°C° 0.2 mm 3 m/s 746 mmHg 61%
13:00 +27°C° 0.2 mm 3 m/s 746 mmHg 65%
14:00 +27°C° 0.2 mm 3 m/s 746 mmHg 68%
15:00 +26°C° 0.3 mm 4 m/s 746 mmHg 70%
16:00 +25°C° 0.3 mm 4 m/s 746 mmHg 73%
17:00 +25°C° 0.3 mm 5 m/s 746 mmHg 75%
18:00 +23°C° 0 mm 4 m/s 746 mmHg 77%
19:00 +22°C° 0 mm 4 m/s 746 mmHg 79%
20:00 +22°C° 0 mm 3 m/s 746 mmHg 81%
21:00 +21°C° 0 mm 3 m/s 746 mmHg 82%
22:00 +20°C° 0 mm 3 m/s 747 mmHg 83%
23:00 +19°C° 0 mm 2 m/s 747 mmHg 85%

28 Julho, Quarta-feira

Tempo Temperatura Precipitação Vento Pressão Humidade
00:00 +19°C° 0 mm 3 m/s 747 mmHg 85%
01:00 +18°C° 0 mm 3 m/s 747 mmHg 86%
02:00 +18°C° 0 mm 3 m/s 747 mmHg 86%
03:00 +18°C° 0 mm 3 m/s 747 mmHg 85%
04:00 +18°C° 0 mm 3 m/s 747 mmHg 85%
05:00 +18°C° 0 mm 3 m/s 747 mmHg 84%
06:00 +20°C° 0 mm 3 m/s 747 mmHg 78%
07:00 +22°C° 0 mm 4 m/s 747 mmHg 72%
08:00 +25°C° 0 mm 4 m/s 747 mmHg 66%
09:00 +26°C° 0 mm 4 m/s 747 mmHg 60%
10:00 +28°C° 0 mm 4 m/s 747 mmHg 54%
11:00 +29°C° 0 mm 5 m/s 747 mmHg 48%
12:00 +30°C° 0 mm 5 m/s 747 mmHg 45%
13:00 +32°C° 0 mm 5 m/s 747 mmHg 42%
14:00 +33°C° 0 mm 5 m/s 746 mmHg 39%
15:00 +33°C° 0 mm 5 m/s 746 mmHg 39%
16:00 +33°C° 0 mm 5 m/s 746 mmHg 39%
17:00 +32°C° 0 mm 4 m/s 746 mmHg 39%
18:00 +30°C° 0 mm 4 m/s 746 mmHg 46%
19:00 +28°C° 0 mm 3 m/s 746 mmHg 53%
20:00 +26°C° 0 mm 2 m/s 746 mmHg 60%
21:00 +25°C° 0 mm 2 m/s 746 mmHg 63%
22:00 +24°C° 0 mm 2 m/s 746 mmHg 66%
23:00 +21°C° 0 mm 2 m/s 746 mmHg 69%

29 Julho, Quinta-feira

Tempo Temperatura Precipitação Vento Pressão Humidade
00:00 +21°C° 0.1 mm 2 m/s 746 mmHg 70%
01:00 +22°C° 0.1 mm 1 m/s 746 mmHg 72%
02:00 +21°C° 0.1 mm 1 m/s 746 mmHg 73%
03:00 +21°C° 0.2 mm 1 m/s 746 mmHg 78%
04:00 +20°C° 0.2 mm 1 m/s 746 mmHg 82%
05:00 +20°C° 0.2 mm 1 m/s 746 mmHg 86%
06:00 +21°C° 0 mm 1 m/s 746 mmHg 81%
07:00 +22°C° 0 mm 1 m/s 746 mmHg 77%
08:00 +24°C° 0 mm 2 m/s 746 mmHg 72%
09:00 +25°C° 0 mm 2 m/s 746 mmHg 67%
10:00 +27°C° 0 mm 3 m/s 747 mmHg 61%
11:00 +28°C° 0 mm 3 m/s 747 mmHg 56%
12:00 +29°C° 0 mm 3 m/s 747 mmHg 53%
13:00 +29°C° 0 mm 3 m/s 747 mmHg 50%
14:00 +30°C° 0 mm 4 m/s 746 mmHg 48%
15:00 +30°C° 0 mm 4 m/s 746 mmHg 45%
16:00 +30°C° 0 mm 4 m/s 746 mmHg 42%
17:00 +30°C° 0 mm 4 m/s 746 mmHg 39%
18:00 +28°C° 0 mm 3 m/s 746 mmHg 46%
19:00 +26°C° 0 mm 3 m/s 746 mmHg 52%
20:00 +25°C° 0 mm 2 m/s 746 mmHg 58%
21:00 +24°C° 0 mm 2 m/s 746 mmHg 61%
22:00 +23°C° 0 mm 1 m/s 746 mmHg 63%
23:00 +20°C° 0 mm 0 m/s 747 mmHg 66%

30 Julho, Sexta-feira

Tempo Temperatura Precipitação Vento Pressão Humidade
00:00 +22°C° 0 mm 1 m/s 746 mmHg 66%
01:00 +21°C° 0 mm 1 m/s 746 mmHg 66%
02:00 +20°C° 0 mm 2 m/s 746 mmHg 66%
03:00 +20°C° 0.4 mm 2 m/s 746 mmHg 71%
04:00 +19°C° 0.4 mm 2 m/s 747 mmHg 77%
05:00 +19°C° 0.4 mm 2 m/s 747 mmHg 83%
06:00 +19°C° 0.2 mm 2 m/s 747 mmHg 82%
07:00 +20°C° 0.2 mm 2 m/s 747 mmHg 81%
08:00 +20°C° 0.2 mm 2 m/s 747 mmHg 80%
09:00 +23°C° 0.1 mm 2 m/s 747 mmHg 74%
10:00 +25°C° 0.1 mm 2 m/s 746 mmHg 67%
11:00 +26°C° 0.1 mm 2 m/s 746 mmHg 61%
12:00 +28°C° 0 mm 2 m/s 746 mmHg 56%
13:00 +30°C° 0 mm 3 m/s 745 mmHg 50%
14:00 +31°C° 0 mm 3 m/s 745 mmHg 45%
15:00 +32°C° 0.1 mm 4 m/s 745 mmHg 49%
16:00 +30°C° 0.1 mm 4 m/s 745 mmHg 53%
17:00 +29°C° 0.1 mm 4 m/s 744 mmHg 56%
18:00 +28°C° 0 mm 3 m/s 744 mmHg 64%
19:00 +26°C° 0 mm 3 m/s 744 mmHg 71%
20:00 +25°C° 0 mm 2 m/s 744 mmHg 78%
21:00 +24°C° 0.9 mm 2 m/s 744 mmHg 82%
22:00 +23°C° 0.9 mm 1 m/s 744 mmHg 86%
23:00 +22°C° 0.9 mm 1 m/s 744 mmHg 90%
Mostrar mais

Necessitamos do seu Consentimento

A Meteoprog e os seus Fornecedores de Serviços podem armazenar e aceder a dados pessoais como cookies, identificadores do dispositivo ou outras tecnologias semelhantes existentes no seu dispositivo e processar estes dados para personalizar conteúdos e anúncios, assim como funcionalidades nas redes sociais e análise de tráfego.

  • Armazenar e/ou aceder a informações no seu dispositivo

    Os cookies, identificadores do dispositivo ou outras informações podem ser armazenados ou acedidos no seu dispositivo, para os fins acima indicados.

  • Anúncios e conteúdos personalizados, medição de anúncios e conteúdos, dados sobre o público-alvo e desenvolvimento de produtos

    Os anúncios e os conteúdos podem ser personalizados com base num perfil. Podem ser adicionados dados adicionais para uma maior personalização dos anúncios e dos conteúdos. A eficácia dos anúncios e dos conteúdos pode ser medida. Podem ser obtidas informações sobre o público que visualizou os anúncios e os conteúdos. Estes dados podem ser usados para desenvolver ou melhorar sistemas, softwares ou a experiência do utilizador.

Ao clicar em "Eu concordo”, permitirá o uso de cookies, identificadores do dispositivo e web beacons mencionados ou outras tecnologias semelhantes. As configurações do navegador do seu dispositivo podem ser alteradas.

Para certos fins, podem ser invocados interesses legítimos ao invés de consentimento. Pode ler mais informação sobre este assunto na nossa Política de Privacidade e Cookies.